CW7765 Weather Reports


Display with metric or nautical units.
time (UTC)temp
F
wind
direction
speed
MPH
gust
MPH
rain 1hr
in
rain 24hr
in
rain mn
in
humidity
%
barometer
mb
20181017113404 48 252 8.0 23.0 0.00 0.00 0.00 72 1020.5
20181017112404 49 288 8.0 17.0 0.00 0.00 0.00 72 1020.3
20181017111404 49 296 7.0 19.0 0.00 0.00 0.00 72 1020.1
20181017110404 49 287 7.0 23.0 0.00 0.00 0.00 70 1020.0
20181017105404 49 294 8.0 20.0 0.00 0.00 0.00 69 1019.9
20181017104404 50 286 10.0 23.0 0.00 0.00 0.00 67 1019.9
20181017103406 50 291 10.0 20.0 0.00 0.00 0.00 66 1019.9
20181017102320 50 254 13.0 27.0 0.00 0.00 0.00 64 1019.7
20181017101321 51 279 4.0 21.0 0.00 0.00 0.00 67 1019.7
20181017100320 51 245 11.0 21.0 0.00 0.00 0.00 66 1019.5
20181017095320 51 247 11.0 21.0 0.00 0.00 0.00 67 1019.5
20181017094320 51 274 7.0 22.0 0.00 0.00 0.00 67 1019.3
20181017093320 52 228 15.0 20.0 0.00 0.00 0.00 65 1019.1
20181017092321 52 263 0.0 16.0 0.00 0.00 0.00 65 1019.0
20181017091321 52 263 8.0 18.0 0.00 0.00 0.00 66 1018.9
20181017090320 52 258 5.0 21.0 0.00 0.00 0.00 67 1019.0
20181017085320 52 260 8.0 16.0 0.00 0.00 0.00 66 1019.0
20181017084320 52 259 4.0 18.0 0.00 0.00 0.00 65 1018.9
20181017083321 52 273 9.0 17.0 0.00 0.00 0.00 65 1018.8
20181017082321 52 266 4.0 18.0 0.00 0.00 0.00 64 1018.8
20181017081320 53 260 5.0 19.0 0.00 0.00 0.00 65 1018.8
20181017080321 53 264 6.0 19.0 0.00 0.00 0.00 65 1018.6
20181017075321 53 254 7.0 20.0 0.00 0.00 0.00 66 1018.6
20181017074321 53 285 11.0 16.0 0.00 0.00 0.00 66 1018.6
20181017073321 53 254 13.0 18.0 0.00 0.00 0.00 68 1018.6
20181017072321 53 254 5.0 19.0 0.00 0.00 0.00 66 1018.4
20181017071321 53 265 7.0 18.0 0.00 0.00 0.00 65 1018.3
20181017070321 53 257 10.0 19.0 0.00 0.00 0.00 65 1018.4
20181017065321 53 252 10.0 20.0 0.00 0.00 0.00 66 1018.3
20181017064321 53 246 16.0 20.0 0.00 0.00 0.00 67 1018.3
20181017063321 53 263 10.0 21.0 0.00 0.00 0.00 67 1018.2
20181017062321 53 275 11.0 20.0 0.00 0.00 0.00 67 1018.2
20181017061321 53 259 10.0 19.0 0.00 0.00 0.00 67 1018.2
20181017060321 53 285 8.0 18.0 0.00 0.00 0.00 69 1018.3
20181017055321 53 282 9.0 20.0 0.00 0.00 0.00 69 1018.4
20181017054321 52 266 10.0 16.0 0.00 0.00 0.00 70 1018.4
20181017053321 52 230 7.0 22.0 0.00 0.00 0.00 70 1018.4
20181017052321 52 226 11.0 15.0 0.00 0.00 0.00 69 1018.3
20181017051321 51 254 11.0 14.0 0.00 0.00 0.00 68 1018.3
20181017050321 51 243 3.0 13.0 0.00 0.00 0.00 66 1018.4
20181017045321 51 257 5.0 13.0 0.00 0.00 0.00 65 1018.4
20181017044321 51 217 8.0 15.0 0.00 0.00 0.00 63 1018.5
20181017043321 51 247 6.0 14.0 0.00 0.00 0.00 62 1018.5
20181017042321 51 254 11.0 17.0 0.00 0.00 0.00 61 1018.3
20181017041321 51 219 7.0 16.0 0.00 0.00 0.00 60 1018.3
20181017040321 51 221 8.0 16.0 0.00 0.00 0.00 60 1018.3
20181017035322 51 231 8.0 15.0 0.00 0.00 0.00 59 1018.2
20181017034321 51 240 8.0 13.0 0.00 0.00 0.00 59 1018.3
20181017033321 51 221 8.0 14.0 0.00 0.00 0.00 59 1018.4
20181017032321 51 236 4.0 9.0 0.00 0.00 0.00 59 1018.4
20181017031321 51 237 7.0 13.0 0.00 0.00 0.00 59 1018.5
20181017030321 51 231 5.0 14.0 0.00 0.00 0.00 59 1018.4
20181017025321 51 229 9.0 15.0 0.00 0.00 0.00 59 1018.4
20181017024321 50 216 6.0 13.0 0.00 0.00 0.00 59 1018.4
20181017023321 50 223 8.0 12.0 0.00 0.00 0.00 59 1018.4
20181017022321 50 227 6.0 10.0 0.00 0.00 0.00 59 1018.3
20181017021321 50 235 6.0 11.0 0.00 0.00 0.00 59 1018.3
20181017020321 50 225 7.0 11.0 0.00 0.00 0.00 58 1018.2
20181017015321 50 213 7.0 11.0 0.00 0.00 0.00 58 1018.1
20181017014321 50 233 8.0 10.0 0.00 0.00 0.00 58 1018.1
20181017013321 50 230 3.0 11.0 0.00 0.00 0.00 57 1018.1
20181017012321 51 236 2.0 10.0 0.00 0.00 0.00 56 1018.0
20181017011321 51 225 9.0 11.0 0.00 0.00 0.00 56 1018.0
20181017010321 51 221 0.0 10.0 0.00 0.00 0.00 56 1018.0
20181017005321 51 214 4.0 10.0 0.00 0.00 0.00 55 1018.1
20181017004321 51 191 3.0 7.0 0.00 0.00 0.00 54 1018.1
20181017003321 52 215 3.0 10.0 0.00 0.00 0.00 53 1018.0
20181017002322 52 220 3.0 7.0 0.00 0.00 0.00 53 1017.8
20181017001321 52 209 0.0 10.0 0.00 0.00 0.00 52 1017.8
20181017000321 52 225 7.0 8.0 0.00 0.00 0.00 51 1017.8
20181016235321 53 233 7.0 10.0 0.00 0.00 0.00 50 1017.5
20181016234321 53 227 4.0 12.0 0.00 0.00 0.00 50 1017.4
20181016233321 53 225 5.0 9.0 0.00 0.00 0.00 49 1017.3
20181016232321 54 224 0.0 10.0 0.00 0.00 0.00 48 1017.2
20181016231322 54 199 2.0 13.0 0.00 0.00 0.00 47 1017.2
20181016230321 54 202 5.0 16.0 0.00 0.00 0.00 46 1017.2
20181016225321 55 240 7.0 12.0 0.00 0.00 0.00 45 1017.2
20181016224321 55 229 7.0 16.0 0.00 0.00 0.00 44 1017.2
20181016223322 56 220 3.0 12.0 0.00 0.00 0.00 44 1017.3
20181016222322 56 225 11.0 15.0 0.00 0.00 0.00 43 1017.3
20181016221322 56 229 11.0 15.0 0.00 0.00 0.00 42 1017.3
20181016220322 57 244 1.0 17.0 0.00 0.00 0.00 41 1017.1
20181016215322 57 232 14.0 19.0 0.00 0.00 0.00 40 1017.2
20181016214322 57 221 12.0 23.0 0.00 0.00 0.00 40 1017.1
20181016213322 57 241 15.0 18.0 0.00 0.00 0.00 40 1017.2
20181016212322 57 232 9.0 19.0 0.00 0.00 0.00 40 1017.0
20181016211322 57 220 13.0 19.0 0.00 0.00 0.00 39 1017.0
20181016210322 57 228 14.0 18.0 0.00 0.00 0.00 39 1017.2
20181016205322 57 219 12.0 18.0 0.00 0.00 0.00 39 1017.3
20181016204322 57 234 11.0 17.0 0.00 0.00 0.00 39 1017.5
20181016203322 57 217 11.0 19.0 0.00 0.00 0.00 39 1017.8
20181016202322 56 239 4.0 20.0 0.00 0.00 0.00 39 1017.8
20181016201322 56 218 1.0 20.0 0.00 0.00 0.00 39 1017.9
20181016200322 56 223 3.0 16.0 0.00 0.00 0.00 40 1017.9
20181016195322 56 223 8.0 16.0 0.00 0.00 0.00 41 1018.0
20181016194322 56 248 10.0 18.0 0.00 0.00 0.00 41 1018.3
20181016193322 55 209 11.0 19.0 0.00 0.00 0.00 41 1018.6
20181016192322 55 241 10.0 22.0 0.00 0.00 0.00 41 1018.9
20181016191322 55 221 17.0 20.0 0.00 0.00 0.00 42 1019.1
20181016190322 54 192 7.0 18.0 0.00 0.00 0.00 44 1019.4
20181016185322 54 214 6.0 17.0 0.00 0.00 0.00 44 1019.4
20181016184322 54 247 12.0 19.0 0.00 0.00 0.00 44 1019.4
20181016183322 53 242 15.0 21.0 0.00 0.00 0.00 44 1019.6
20181016182322 52 259 8.0 22.0 0.00 0.00 0.00 45 1019.8
20181016181322 53 227 8.0 19.0 0.00 0.00 0.00 47 1019.7
20181016180322 52 189 11.0 22.0 0.00 0.00 0.00 48 1019.6
20181016175322 52 223 19.0 23.0 0.00 0.00 0.00 48 1020.0
20181016174322 51 251 8.0 19.0 0.00 0.00 0.00 49 1020.3
20181016173322 51 228 11.0 22.0 0.00 0.00 0.00 51 1020.7
20181016172322 50 243 7.0 22.0 0.00 0.00 0.00 51 1020.9
20181016171322 50 211 14.0 24.0 0.00 0.00 0.00 50 1020.9
20181016170322 50 200 8.0 23.0 0.00 0.00 0.00 52 1021.1
20181016165322 50 218 9.0 23.0 0.00 0.00 0.00 51 1021.5
20181016164322 50 240 11.0 20.0 0.00 0.00 0.00 53 1021.6
20181016163322 49 223 7.0 17.0 0.00 0.00 0.00 54 1021.6
20181016162322 48 227 20.0 21.0 0.00 0.00 0.00 51 1021.8
20181016161322 48 254 11.0 24.0 0.00 0.00 0.00 53 1021.9
20181016160322 48 221 17.0 22.0 0.00 0.00 0.00 55 1022.0
20181016155322 47 208 12.0 22.0 0.00 0.00 0.00 56 1022.3
20181016154322 47 217 5.0 21.0 0.00 0.00 0.00 60 1022.3
20181016153322 46 227 10.0 24.0 0.00 0.00 0.00 61 1022.5
20181016152322 46 235 10.0 17.0 0.00 0.00 0.00 62 1022.7
20181016151322 45 213 17.0 18.0 0.00 0.00 0.00 63 1023.0
20181016150323 45 227 20.0 20.0 0.00 0.00 0.00 63 1023.1
20181016145323 45 246 13.0 21.0 0.00 0.00 0.00 63 1023.4
20181016144322 44 186 3.0 17.0 0.00 0.00 0.00 65 1023.5
20181016143322 44 208 11.0 15.0 0.00 0.00 0.00 67 1023.6
20181016142322 43 234 8.0 16.0 0.00 0.00 0.00 69 1023.7
20181016141322 42 232 9.0 17.0 0.00 0.00 0.00 71 1023.9
20181016140322 41 193 10.0 16.0 0.00 0.00 0.00 73 1023.9
20181016135322 41 222 4.0 15.0 0.00 0.00 0.00 75 1024.2
20181016134322 40 241 7.0 11.0 0.00 0.00 0.00 77 1024.3
20181016133323 39 227 7.0 15.0 0.00 0.00 0.00 78 1024.5
20181016132323 38 192 7.0 12.0 0.00 0.00 0.00 81 1024.4
20181016131323 37 235 6.0 13.0 0.00 0.00 0.00 83 1024.2
20181016130323 37 202 3.0 8.0 0.00 0.00 0.00 84 1024.5
20181016125322 36 210 5.0 11.0 0.00 0.00 0.00 85 1024.4
20181016124322 35 213 1.0 9.0 0.00 0.00 0.00 86 1024.4
20181016123323 35 179 2.0 9.0 0.00 0.00 0.00 86 1024.4
20181016122323 35 233 4.0 8.0 0.00 0.00 0.00 87 1024.5
20181016121322 34 205 0.0 7.0 0.00 0.00 0.00 87 1024.3
20181016120323 34 191 3.0 8.0 0.00 0.00 0.00 87 1024.4
20181016115323 34 193 1.0 8.0 0.00 0.00 0.00 87 1024.5
20181016114323 34 192 4.0 5.0 0.00 0.00 0.00 87 1024.7